Date,TemperatureHighF,TemperatureAvgF,TemperatureLowF,DewpointHighF,DewpointAvgF,DewpointLowF,HumidityHigh,HumidityAvg,HumidityLow,PressureMaxIn,PressureMinIn,WindSpeedMaxMPH,WindSpeedAvgMPH,GustSpeedMaxMPH,PrecipitationSumIn
2013-1-1,11,2,-7,7,-1,-10,85,84,83,30.25,30.13,6,2,0,0.00
2013-1-2,17,16,14,15,13,12,93,91,89,30.07,29.96,9,1,0,0.00
2013-1-3,19,14,11,17,11,5,93,87,72,30.20,29.93,15,5,18,0.00
2013-1-4,34,22,11,21,16,8,91,77,59,30.13,29.93,13,2,17,0.03
2013-1-5,28,20,11,20,15,9,92,83,64,30.12,29.85,11,2,15,0.01
2013-1-6,23,17,13,18,12,7,90,80,64,30.19,29.97,13,3,16,0.00
2013-1-7,39,27,14,25,20,8,86,76,55,29.99,29.79,16,4,19,0.05
2013-1-8,35,25,15,26,21,13,94,85,65,29.98,29.73,13,2,15,0.00
2013-1-9,28,24,22,19,18,17,81,76,67,30.31,30.28,5,1,0,0.00
2013-1-10,36,27,22,22,19,17,82,73,57,30.33,30.20,14,4,19,0.00
2013-1-11,39,36,33,38,35,32,97,97,96,29.56,29.30,14,2,14,0.54
2013-1-12,39,27,15,38,24,10,97,89,76,29.81,29.29,15,6,19,0.05
2013-1-13,8,6,3,4,2,0,86,83,82,30.22,30.10,9,3,0,0.00
2013-1-14,5,4,3,2,1,-1,88,86,85,30.32,30.22,9,2,0,0.00
2013-1-15,25,22,19,14,12,10,75,66,54,30.14,29.73,16,4,19,0.00
2013-1-16,27,19,2,24,11,-8,93,72,49,30.23,29.56,17,6,22,0.00
2013-1-17,4,0,-3,-2,-6,-8,82,74,65,30.41,30.23,11,1,0,0.00
2013-1-18,17,12,0,15,9,-4,90,87,81,30.36,29.78,9,1,12,0.00
2013-1-19,31,16,-1,26,11,-7,93,81,64,30.16,29.60,30,8,32,0.00
2013-1-20,0,-5,-10,-6,-9,-13,82,76,68,30.38,30.16,16,5,19,0.00
2013-1-21,-8,-13,-18,-13,-19,-22,74,68,58,30.35,30.27,19,6,24,0.00
2013-1-22,-1,-11,-19,-11,-16,-22,78,71,57,30.44,30.30,10,3,0,0.00
2013-1-23,6,-4,-13,0,-10,-18,84,72,54,30.68,30.19,21,4,26,0.00
2013-1-24,5,-6,-18,0,-11,-21,83,73,56,30.74,30.25,10,2,14,0.00
2013-1-25,14,9,2,9,4,-3,88,80,70,30.32,29.95,14,4,16,0.00
2013-1-26,16,7,-7,8,1,-9,86,76,65,30.41,30.21,10,1,13,0.00
2013-1-27,33,24,15,27,17,8,94,75,59,30.21,29.84,12,3,13,0.01
2013-1-28,30,27,25,28,26,24,95,94,93,29.85,29.67,7,1,0,0.05
2013-1-29,30,28,22,29,25,18,96,90,81,29.74,29.51,13,3,15,0.05
2013-1-30,22,19,16,18,16,12,89,88,85,29.74,29.64,15,7,16,0.00